TimeEDT,TemperatureF,Dew PointF,Humidity,Sea Level PressureIn,VisibilityMPH,Wind Direction,Wind SpeedMPH,Gust SpeedMPH,PrecipitationIn,Events,Conditions,WindDirDegrees,DateUTC
12:56 AM,71.1,69.1,93,30.09,10.0,Calm,Calm,-,N/A,,Scattered Clouds,0,2013-10-05 04:56:00
1:56 AM,70.0,68.0,93,30.08,10.0,Calm,Calm,-,N/A,,Scattered Clouds,0,2013-10-05 05:56:00
2:56 AM,69.1,68.0,96,30.07,10.0,Calm,Calm,-,N/A,,Scattered Clouds,0,2013-10-05 06:56:00
3:56 AM,69.1,66.9,93,30.05,10.0,Calm,Calm,-,N/A,,Scattered Clouds,0,2013-10-05 07:56:00
4:56 AM,68.0,66.9,96,30.05,2.0,Calm,Calm,-,N/A,,Scattered Clouds,0,2013-10-05 08:56:00
5:30 AM,66.2,66.2,100,30.05,7.0,Calm,Calm,-,N/A,,Mostly Cloudy,0,2013-10-05 09:30:00
5:56 AM,68.0,66.9,96,30.06,4.0,Calm,Calm,-,N/A,,Mostly Cloudy,0,2013-10-05 09:56:00
6:12 AM,68.0,66.2,94,30.06,2.5,North,3.5,-,N/A,,Mostly Cloudy,350,2013-10-05 10:12:00
6:43 AM,68.0,66.2,94,30.06,1.2,Calm,Calm,-,N/A,,Mostly Cloudy,0,2013-10-05 10:43:00
6:56 AM,68.0,66.9,96,30.07,1.2,Calm,Calm,-,N/A,,Mostly Cloudy,0,2013-10-05 10:56:00
7:07 AM,68.0,66.2,94,30.07,0.5,North,3.5,-,N/A,Fog,Fog,360,2013-10-05 11:07:00
7:24 AM,68.0,68.0,100,30.07,0.2,Calm,Calm,-,N/A,Fog,Fog,0,2013-10-05 11:24:00
7:37 AM,68.0,68.0,100,30.07,0.8,Calm,Calm,-,N/A,,Mostly Cloudy,0,2013-10-05 11:37:00
7:56 AM,68.0,68.0,100,30.08,0.8,Calm,Calm,-,N/A,,Mostly Cloudy,0,2013-10-05 11:56:00
8:10 AM,69.8,68.0,94,30.08,2.0,Calm,Calm,-,N/A,,Mostly Cloudy,0,2013-10-05 12:10:00
8:15 AM,69.8,68.0,94,30.08,7.0,North,3.5,-,N/A,,Scattered Clouds,10,2013-10-05 12:15:00
8:56 AM,73.0,71.1,93,30.09,10.0,NNE,5.8,-,N/A,,Scattered Clouds,30,2013-10-05 12:56:00
9:56 AM,78.1,73.0,84,30.10,10.0,NNE,8.1,-,N/A,,Scattered Clouds,20,2013-10-05 13:56:00
10:20 AM,78.8,73.4,83,30.10,10.0,NE,8.1,-,N/A,,Mostly Cloudy,40,2013-10-05 14:20:00
10:29 AM,78.8,73.4,83,30.10,10.0,NE,8.1,-,N/A,,Mostly Cloudy,40,2013-10-05 14:29:00
10:56 AM,80.1,73.0,79,30.10,10.0,NNE,8.1,-,N/A,,Mostly Cloudy,30,2013-10-05 14:56:00
11:53 AM,80.6,71.6,74,30.09,10.0,ENE,12.7,-,N/A,,Mostly Cloudy,60,2013-10-05 15:53:00
11:56 AM,82.0,71.1,69,30.09,10.0,ENE,9.2,-,N/A,,Mostly Cloudy,60,2013-10-05 15:56:00
12:56 PM,82.9,71.1,67,30.08,10.0,ENE,12.7,-,N/A,,Mostly Cloudy,60,2013-10-05 16:56:00
1:56 PM,84.9,71.1,63,30.06,10.0,NE,11.5,-,N/A,,Mostly Cloudy,40,2013-10-05 17:56:00
2:56 PM,84.9,70.0,61,30.04,10.0,East,11.5,-,N/A,,Scattered Clouds,80,2013-10-05 18:56:00
3:56 PM,82.9,70.0,65,30.03,10.0,ENE,11.5,-,N/A,,Scattered Clouds,60,2013-10-05 19:56:00
4:56 PM,82.9,68.0,60,30.02,10.0,ENE,12.7,-,N/A,,Scattered Clouds,70,2013-10-05 20:56:00
5:56 PM,81.0,70.0,69,30.02,10.0,East,10.4,-,N/A,,Scattered Clouds,80,2013-10-05 21:56:00
6:56 PM,78.1,71.1,79,30.02,10.0,East,8.1,-,N/A,,Scattered Clouds,80,2013-10-05 22:56:00
7:56 PM,75.9,73.2,91,30.02,10.0,ENE,8.1,-,N/A,,Partly Cloudy,70,2013-10-05 23:56:00
8:56 PM,74.7,74.1,98,30.04,10.0,East,4.6,-,N/A,,Clear,80,2013-10-06 00:56:00
9:56 PM,73.9,73.9,100,30.04,10.0,Calm,Calm,-,N/A,,Clear,0,2013-10-06 01:56:00
10:56 PM,72.1,72.1,100,30.04,10.0,Calm,Calm,-,N/A,,Clear,0,2013-10-06 02:56:00
11:56 PM,72.0,72.0,100,30.03,7.0,Calm,Calm,-,N/A,,Clear,0,2013-10-06 03:56:00